Schaffen, Belgium

2:49 PM CEST on March 30, 2017 (GMT +0200)
Schaffen

Weather History for EBDT - June, 2013

Change the Weather History Date:

Friday, June 21, 2013

  Actual Average Record
Temperature  
Mean Temperature 64 °F -  
Max Temperature 69 °F 64 °F 80 °F (1998)
Min Temperature 59 °F 56 °F 45 °F (2014)
Degree Days  
Heating Degree Days 1    
Growing Degree Days 14 (Base 50)    
Moisture  
Dew Point 57 °F    
Average Humidity 81    
Maximum Humidity 94    
Minimum Humidity 17    
Precipitation  
Precipitation 0.87 in - - ()
Sea Level Pressure  
Sea Level Pressure 29.86 in    
Wind  
Wind Speed 8 mph ()    
Max Wind Speed 17 mph    
Max Gust Speed 25 mph    
Visibility 7.1 miles    
Events Rain    
Averages and records for this station are not official NWS values.
T = Trace of Precipitation, MM = Missing Value Source: Averaged Metar Reports

Daily Weather History Graph

Daily Weather History Graph

Search for Another Location

Airport or City:

Trip Planner

Search our weather history database for the weather conditions in past years. The results will help you decide how hot, cold, wet, or windy it might be!

Date:

Astronomy

Jun. 21, 2013 Rise Set
Actual Time 5:25 AM CEST 9:57 PM CEST
Civil Twilight 4:38 AM CEST 10:44 PM CEST
Nautical Twilight 3:27 AM CEST 11:55 PM CEST
Astronomical Twilight 2:13 AM CEST 1:09 AM CEST
Moon 7:41 PM CEST (6/21) 3:39 AM CEST (6/21)
Length of Visible Light 18h 06m
Length of Day
16h 32m
Waxing Gibbous, 94% of the Moon is Illuminated
Jun 21
Waxing Gibbous
Jun 23
Full
Jun 30
Last Quarter
Jul 8
New
Jul 16
First Quarter

Hourly Weather History & Observations

Time (CEST) Temp. Dew Point Humidity Pressure Visibility Wind Dir Wind Speed Gust Speed Precip Events Conditions
12:25 AM 66.2 °F 57.2 °F 73% 29.83 in 6.2 mi South 11.5 mph - N/A Rain Light Rain
1:25 AM 62.6 °F 59.0 °F 88% 29.83 in 6.2 mi SSE 5.8 mph - N/A   Light Drizzle
2:00 AM 62 °F 59 °F 86% 29.82 in 19 mi SSE 4.5 mph - - Rain Drizzle
2:25 AM 62.6 °F 59.0 °F 88% 29.80 in 6.2 mi SSE 4.6 mph - N/A   Mostly Cloudy
3:25 AM 60.8 °F 59.0 °F 94% 29.77 in 6.2 mi South 4.6 mph - N/A   Mostly Cloudy
4:01 AM 62.6 °F 57.2 °F 82% 29.77 in 6.2 mi South 6.9 mph - N/A   Mostly Cloudy
4:21 AM 62.6 °F 59.0 °F 88% 29.77 in 6.2 mi South 6.9 mph - N/A   Overcast
4:25 AM 62.6 °F 59.0 °F 88% 29.77 in 6.2 mi South 6.9 mph - N/A   Overcast
5:00 AM 62 °F 58 °F 84% 29.78 in 28 mi South 8.9 mph - -   Clear
5:25 AM 60.8 °F 57.2 °F 88% 29.77 in 2.5 mi SSW 13.8 mph - N/A Rain Rain Showers
5:30 AM 60.8 °F 59.0 °F 94% 29.77 in 0.6 mi SSW 16.1 mph - N/A Rain Heavy Rain Showers
5:40 AM 60.8 °F 59.0 °F 94% 29.77 in 1.2 mi SSW 12.7 mph - N/A Rain Light Rain Showers
6:02 AM 59.0 °F 57.2 °F 94% 29.80 in 3.7 mi SW 11.5 mph - N/A   Light Drizzle
6:25 AM 59.0 °F 57.2 °F 94% 29.80 in 6.2 mi SSW 9.2 mph - N/A Rain Light Rain
7:25 AM 60.8 °F 15.8 °F 17% 29.80 in 6.2 mi SW 6.9 mph - N/A   Mostly Cloudy
8:00 AM 64 °F 62 °F 91% 29.82 in 17 mi SSW 6.7 mph - -   Partly Cloudy
8:25 AM 60.8 °F 59.0 °F 94% 29.80 in 6.2 mi SSW 8.1 mph - N/A   Mostly Cloudy
9:04 AM 60.8 °F 57.2 °F 88% 29.83 in 6.2 mi SSW 9.2 mph - N/A   Mostly Cloudy
9:21 AM 60.8 °F 57.2 °F 88% 29.83 in 6.2 mi SSW 10.4 mph - N/A   Mostly Cloudy
9:25 AM 60.8 °F 57.2 °F 88% 29.83 in 6.2 mi SSW 10.4 mph - N/A   Mostly Cloudy
9:44 AM 60.8 °F 57.2 °F 88% 29.83 in 6.2 mi SW 9.2 mph - N/A   Mostly Cloudy
10:25 AM 60.8 °F 59.0 °F 94% 29.86 in 3.1 mi SSW 6.9 mph - N/A   Mostly Cloudy
10:42 AM 62.6 °F 60.8 °F 94% 29.86 in 6.2 mi SSW 6.9 mph - N/A   Mostly Cloudy
11:00 AM 62 °F 60 °F 91% 29.87 in 17 mi SSW 6.7 mph - - Rain Light Rain Showers
11:06 AM 62.6 °F 59.0 °F 88% 29.86 in 6.2 mi SW 8.1 mph - N/A   Mostly Cloudy
11:25 AM 62.6 °F 59.0 °F 88% 29.86 in 5.0 mi SW 8.1 mph - N/A Rain Light Rain Showers
12:01 PM 62.6 °F 59.0 °F 88% 29.86 in 6.2 mi SW 9.2 mph - N/A   Mostly Cloudy
12:25 PM 64.4 °F 60.8 °F 88% 29.89 in 6.2 mi SW 8.1 mph - N/A   Mostly Cloudy
1:25 PM 68.0 °F 60.8 °F 78% 29.89 in 6.2 mi SSW 9.2 mph - N/A   Mostly Cloudy
2:00 PM 66 °F 60 °F 75% 29.89 in 15 mi SW 11.2 mph - - Rain Light Rain
2:02 PM 66.2 °F 60.8 °F 83% 29.89 in 6.2 mi SW 10.4 mph - N/A Rain Light Rain Showers
2:25 PM 66.2 °F 60.8 °F 83% 29.89 in 6.2 mi SSW 9.2 mph - N/A   Mostly Cloudy
3:25 PM 68.0 °F 57.2 °F 68% 29.92 in 6.2 mi SW 16.1 mph - N/A   Scattered Clouds
4:25 PM 68.0 °F 57.2 °F 68% 29.92 in 6.2 mi SW 17.3 mph - N/A   Scattered Clouds
5:00 PM 67 °F 57 °F 62% 29.94 in 14 mi SW 15.7 mph - -   Clear
5:25 PM 68.0 °F 57.2 °F 68% 29.92 in 6.2 mi WSW 12.7 mph 25.3 mph N/A   Partly Cloudy
6:25 PM 68.0 °F 53.6 °F 60% 29.95 in 6.2 mi WSW 16.1 mph - N/A   Clear
7:25 PM 64.4 °F 53.6 °F 68% 29.95 in 6.2 mi WSW 12.7 mph - N/A   Mostly Cloudy
8:00 PM 64 °F 54 °F 63% 29.98 in 22 mi West 11.2 mph - -   Clear
9:25 PM 62.6 °F 53.6 °F 72% 29.98 in 6.2 mi SW 8.1 mph - N/A   Mostly Cloudy
10:25 PM 60.8 °F 53.6 °F 77% 29.98 in 6.2 mi South 5.8 mph - N/A   Scattered Clouds
11:00 PM 61 °F 54 °F 73% 30.00 in 14 mi SSW 6.7 mph - -   Mostly Cloudy
11:25 PM 60.8 °F 55.4 °F 82% 30.01 in 6.2 mi SSW 6.9 mph - N/A   Mostly Cloudy